Tracking 17694 objects as of 25-May-2016
HD Live streaming from Space Station
objects crossing your sky now

IRIDIUM 18

Track IRIDIUM 18 now!
10-day predictions
IRIDIUM 18 is classified as:


NORAD ID: 24872
Int'l Code: 1997-034D
Perigee: 784.8 km
Apogee: 784.8 km
Inclination: 86.4 °
Period: 100.4 minutes
Semi major axis: 7155 km
RCS: 3.8649 m2 (large)
Launch date: July 9, 1997
Source: United States (US)
Launch site: AIR FORCE WESTERN TEST RANGE (AFWTR)
Your satellite tracking list
Your tracking list is empty





NASA's NSSDC Master Catalog

Two Line Element Set (TLE):
1 24872U 97034D   16146.48905645  .00000056  00000-0  12872-4 0  9990
2 24872  86.3983 184.1111 0002425  95.5158 264.6314 14.34218956988346
Source of the keplerian elements: AFSPC

N2YO: 498